Location: Chamandrin
(44.8833°N, 6.6167°E)
Time: 05:40:24
(UTC+00:00)

Daily predictions for brighter satellites

Satellite Brightness Start Highest point End
(mag) Time Altitude Azimuth Time Altitude Azimuth Time Altitude Azimuth
SL-16 R/B 4.3 00:06:04 15° WNW 00:08:09 18° NW 00:11:58 10° N
Cosmos 1943 Rocket 3.8 00:03:25 10° N 00:08:19 29° NE 00:10:24 23° E
ATLAS 5 CENTAUR R/B 4.2 00:08:21 10° NNW 00:11:58 21° NE 00:16:08 10° E
Cosmos 2344 4.2 00:21:52 10° NW 00:30:17 72° NE 00:41:57 10° SE
USA 215 3.6 00:28:24 10° ENE 00:34:07 50° ESE 00:34:07 50° ESE
Lacrosse 5 4.0 00:35:37 13° WNW 00:38:54 23° NNW 00:42:58 10° NE
Meteor 1-11 Rocket 4.2 00:37:01 10° N 00:42:24 50° ENE 00:42:35 50° E
NOSS 0 Rocket 3.9 00:45:55 81° NE 00:45:55 81° NE 00:51:49 10° NNE
NOSS 2-3 (D) 4.5 00:43:54 10° NW 00:49:44 89° SW 00:50:19 77° SSE
Gbstr 26 Del rocket 4.4 00:57:32 35° N 00:57:32 35° N 01:01:14 10° ENE
Cosmos 2237 Rocket 2.2 00:59:39 75° ENE 00:59:39 75° ENE 01:04:59 10° NNE
Cosmos 1980 3.7 01:02:36 80° NE 01:02:36 80° NE 01:07:56 10° NNE
IDEFIX/ARIANE 42P 3.1 00:58:57 10° NNE 01:03:55 51° E 01:03:55 51° E
USA 267 3.8 01:02:50 10° ESE 01:09:07 55° NNE 01:15:28 10° NW
CZ-2D R/B 2.8 01:04:44 10° NNE 01:09:55 45° E 01:10:23 44° ESE
Cosmos 1151 Rocket 4.3 01:10:36 36° ENE 01:10:36 36° ENE 01:14:07 10° NNE
COSMOS 2428 3.6 01:13:37 36° WNW 01:13:58 36° NW 01:19:12 10° NNE
Meteor 2-9 Rocket 4.2 01:11:38 10° N 01:17:07 73° ENE 01:17:36 68° ESE
Cosmos 1743 Rocket 4.3 01:13:54 10° N 01:17:16 50° NNE 01:17:16 50° NNE
Cosmos 2112 Rocket 4.3 01:19:51 58° ESE 01:19:59 58° ESE 01:25:14 10° NNE
Resurs 1-4 Rocket 2.3 01:16:42 10° NNE 01:21:56 60° ESE 01:22:17 58° ESE
Cosmos 2219 Rocket 4.2 01:23:12 15° WNW 01:24:49 17° NW 01:28:27 10° N
Meteor 1-19 Rocket 4.3 01:28:25 68° S 01:29:15 83° E 01:35:20 10° NNE
Cosmos 2278 Rocket 3.2 01:28:52 10° NW 01:32:30 33° WNW 01:32:30 33° WNW
USA 290 4.2 01:37:48 10° N 01:40:17 29° NE 01:40:17 29° NE
Cosmos 1680 Rocket 3.4 01:42:34 74° WSW 01:42:55 78° WNW 01:48:16 10° NNE
COBE Rocket 3.6 01:38:35 10° NNE 01:43:15 87° ESE 01:43:15 87° ESE
Meteor 2-10 4.1 01:37:50 10° NNW 01:43:33 76° W 01:44:15 66° SSW
Cosmos 1420 Rocket 3.9 01:38:23 10° NNW 01:43:40 84° WSW 01:44:11 73° S
Cosmos 2195 Rocket 4.4 01:44:51 58° SSW 01:46:11 80° W 01:52:26 10° N
ADEOS II 2.3 01:41:01 10° NNE 01:46:13 61° ESE 01:47:24 48° SSE
Meteor 1-28 Rocket 3.9 01:49:06 49° ENE 01:49:06 49° ENE 01:52:34 10° N
Nadezhda 4 Rocket 4.3 01:50:48 44° W 01:51:31 46° WNW 01:57:24 10° N
ATLAS 2AS CENTAUR R/B 2.8 01:49:36 48° SW 01:51:58 89° ESE 01:59:10 10° NE
Cosmos 1943 Rocket 2.4 01:46:50 10° NW 01:51:51 50° W 01:51:51 50° W
SL-16 R/B 2.3 01:54:58 51° S 01:56:21 70° ESE 02:02:00 10° NNE
ATLAS 5 CENTAUR R/B 2.0 01:51:21 10° NW 01:56:24 90° ESE 02:02:40 10° SE
Cosmos 2056 Rocket 3.4 01:51:57 10° NNW 01:57:22 77° WSW 01:58:36 54° S
Cosmos 1340 Rocket 2.8 02:01:32 74° N 02:01:32 74° N 02:05:09 10° N
CZ-2C R/B 2.5 02:00:15 56° SSW 02:01:14 70° WSW 02:06:33 10° NNW
Meteor 1-27 Rocket 4.0 02:01:01 47° WSW 02:01:50 51° WNW 02:07:18 10° N
Sich 1 4.2 01:58:51 10° NNW 02:01:28 29° NW 02:01:28 29° NW
GEOS 3 Rocket 3.6 01:58:22 10° SE 02:03:43 86° NE 02:09:04 10° NW
GP-B 3.0 01:59:34 10° N 02:03:57 67° W 02:03:57 67° W
SL-16 R/B 2.6 02:00:25 19° SSE 02:05:02 82° ENE 02:11:18 10° NNW
Cosmos 1624 Rocket 3.9 02:02:07 10° NNW 02:07:16 64° WSW 02:08:03 56° SSW
ALOS 2.8 02:04:04 10° NNE 02:08:36 52° E 02:10:18 34° SSE
NPP 4.1 02:06:04 10° N 02:11:10 44° WNW 02:12:09 40° W
Cosmos 1340 3.0 02:08:21 10° NNW 02:10:59 50° NNW 02:10:59 50° NNW
NOSS 3-1 (A) 4.4 02:04:54 10° NW 02:12:10 67° NE 02:20:58 10° SE
Cosmos 1805 3.6 02:10:24 10° NNW 02:13:21 50° NW 02:13:21 50° NW
USA 215 3.6 02:11:26 10° NE 02:17:49 58° NNW 02:21:28 26° W
Intercosmos 25 Rocket 4.0 02:16:50 10° N 02:20:59 85° E 02:27:37 10° S
Lacrosse 5 4.2 02:19:18 10° NW 02:23:22 23° NNE 02:27:25 10° ENE
Cosmos 1666 Rocket 3.5 02:19:53 10° NNW 02:24:18 66° W 02:25:08 52° SSW
Cosmos 1553 Rocket 3.9 02:19:04 10° N 02:25:19 86° W 02:30:02 18° S
Cosmos 1674 4.1 02:28:15 18° SE 02:30:06 30° E 02:33:10 10° NNE
NOSS 3-1 (C) 4.1 02:22:42 10° NW 02:30:07 66° WSW 02:39:00 10° SSE
ATLAS 3B R/B 3.1 02:29:12 10° NW 02:37:06 83° NE 02:44:52 10° SE
MINOTAUR IV R/B 4.5 02:35:38 10° NNW 02:40:06 89° E 02:44:31 10° SSE
Cosmos 1656 Rocket 3.5 02:35:53 10° NNW 02:41:18 75° WSW 02:46:42 10° SSE
Cosmos 1328 Rocket 3.8 02:41:11 39° SW 02:42:22 51° WNW 02:46:42 10° N
Cosmos 1470 4.1 02:39:04 10° N 02:42:38 37° ENE 02:46:10 10° SE
Cosmos 1626 1.8 02:42:31 56° W 02:42:41 57° W 02:45:57 10° N
IDEFIX/ARIANE 42P 3.9 02:39:09 10° N 02:43:13 24° WNW 02:44:41 21° W
Cosmos 2237 Rocket 3.9 02:41:27 15° W 02:44:01 20° NW 02:48:11 10° N
Cosmos 1066 Rocket 4.1 02:40:39 23° S 02:44:07 89° E 02:49:44 10° N
USA 308 4.4 02:42:30 16° WNW 02:44:36 25° NNW 02:47:53 10° NE
Gbstr 26 Del rocket 4.2 02:40:47 10° WNW 02:44:45 37° NNE 02:48:18 10° E
ISS -1.8 02:44:09 17° SSE 02:44:55 18° SE 02:47:19 10° E
Cosmos 2369 Rocket 2.1 02:40:07 10° NNW 02:45:45 87° WSW 02:51:20 10° SSE
Cosmos 921 Rocket 4.1 02:48:29 25° W 02:49:29 28° WNW 02:53:17 10° N
CZ-2C R/B 3.7 02:44:34 10° N 02:49:33 41° WNW 02:51:58 27° WSW
CZ-2D R/B 3.3 02:45:11 10° N 02:49:42 28° WNW 02:51:41 22° W
Cosmos 1975 3.7 02:47:09 10° NNW 02:50:23 29° W 02:50:23 29° W
USA 267 3.3 02:45:48 10° SSE 02:52:08 55° SW 02:58:32 10° WNW
Cosmos 1633 Rocket 3.6 02:49:47 10° NNW 02:53:49 38° W 02:55:02 31° SW
Cosmos 2297 3.8 02:48:41 10° NNW 02:54:19 57° WSW 02:59:55 10° S
Resurs 1-4 Rocket 3.6 02:57:24 10° NNW 03:01:16 21° WNW 03:03:21 17° W
Cosmos 1766 3.3 03:01:47 10° NNW 03:05:21 48° W 03:07:19 23° SSW
Iridium 51 3.9 03:05:13 29° SSW 03:06:42 58° W 03:10:06 10° N
Meteor 2-4 Rocket 4.5 03:04:18 23° WSW 03:06:54 34° WNW 03:12:01 10° N
Cosmos 1943 3.3 03:03:44 16° SSW 03:08:18 82° ESE 03:14:01 10° NNE
Cosmos 1048 Rocket 4.4 03:09:34 22° SW 03:12:48 48° WNW 03:17:52 10° N
UNK 4.3 03:10:15 19° SSW 03:12:56 35° W 03:17:11 10° NNW
Cosmos 2263 4.1 03:09:45 10° NNW 03:15:22 70° WSW 03:20:59 10° SSE
Thor Agena Rocket 3.7 03:10:47 10° NNE 03:15:51 72° ESE 03:20:55 10° S
USA 307 3.9 03:20:58 10° SE 03:21:19 10° SE 03:21:42 10° ESE
CZ-2C R/B 2.5 03:16:27 10° NNE 03:21:39 90° SE 03:26:44 10° SSW
H-2A R/B 3.8 03:18:40 10° NNE 03:23:12 31° E 03:27:49 10° SSE
USA 306 3.3 03:22:03 16° SSW 03:24:45 44° SE 03:28:09 10° ENE
ADEOS II 3.6 03:21:37 10° NNW 03:25:23 20° WNW 03:28:17 13° W
PAYLOAD A 3.8 03:21:22 10° NNE 03:26:12 86° ESE 03:30:53 10° SSW
Cosmos 883 Rocket 4.4 03:23:19 10° NNW 03:29:25 70° W 03:35:29 10° S
Cosmos 1707 2.6 03:27:10 12° SSW 03:30:29 60° W 03:34:08 10° N
Cosmos 1302 Rocket 4.0 03:28:37 10° NNW 03:33:50 90° WNW 03:39:01 10° SSE
IRS-1D 3.6 03:28:41 10° NNE 03:33:53 83° WNW 03:39:08 10° SSW
CZ-4 R/B 4.3 03:30:17 10° N 03:34:43 43° WNW 03:38:49 11° SW
Cosmos 1842 3.7 03:32:03 15° SW 03:34:51 38° WNW 03:38:23 10° N
Cosmos 1484 Rocket 4.3 03:32:45 10° NNE 03:36:02 32° E 03:39:16 10° SSE
Lacrosse 5 rocket 4.0 03:34:41 10° SSE 03:36:52 14° ESE 03:39:00 10° E
Cosmos 2266 Rocket 4.3 03:32:18 10° SSW 03:38:04 46° WNW 03:43:52 10° N
In-Cosmos 22 4.3 03:33:35 10° S 03:39:05 87° ESE 03:44:48 10° NNE
YAOGAN 6 2.5 03:36:02 10° N 03:39:17 54° WNW 03:42:31 10° SSW
ATLAS 5 CENTAUR R/B 3.6 03:36:36 10° WNW 03:40:04 17° WSW 03:43:55 10° SSW
Cosmos 1603 3.7 03:34:38 10° SSW 03:40:15 86° WNW 03:45:56 10° NNE
SL-16 R/B 3.7 03:36:50 11° W 03:41:01 22° NW 03:45:24 10° N
S3M 4.4 03:37:10 10° NNW 03:42:55 41° W 03:48:43 10° SSW
ATLAS 2AS CENTAUR R/B 4.0 03:37:28 10° W 03:43:45 30° NNW 03:49:50 10° NNE
ALOS 3.8 03:42:11 10° NNW 03:45:25 19° WNW 03:48:37 10° WSW
Cosmos 1452 Rocket 4.3 03:41:02 10° NW 03:45:31 29° W 03:49:59 10° SSW
Cosmos 1869 Rocket 3.6 03:43:54 10° NNW 03:48:08 54° W 03:52:19 10° S
SL-16 R/B 3.9 03:45:30 10° SW 03:49:19 17° W 03:53:15 10° NW
Envisat 3.6 03:45:44 10° N 03:50:25 39° WNW 03:55:05 10° SW
Cosmos 1758 4.0 03:47:40 10° N 03:51:31 56° ENE 03:55:18 10° SSE
SL-14 R/B 4.2 03:48:07 10° S 03:51:59 53° E 03:55:53 10° NNE
Cosmos 2228 Rocket 3.1 03:58:35 10° S 04:02:58 84° W 04:07:23 10° N
Cosmos 1674 4.3 04:02:29 10° WSW 04:04:36 15° WNW 04:06:44 10° NNW
Meteor 1-22 Rocket 4.2 04:00:30 10° NNW 04:05:57 62° W 04:11:12 10° S
Lacrosse 5 2.8 04:02:19 10° NW 04:07:20 52° NNE 04:12:19 10° ESE
CZ-3 R/B 4.0 03:51:51 10° WSW 04:12:14 33° S 04:19:31 10° SE
